Погода в Андреевске

Россия / Иркутская область     58°08′01″N   114°19′06″E
темп.,
°C
ветер,
м/с
пор.,
м/с
влажн.,
%
обл.,
%
осадки,
мм/ч
давл.,
гПа
погр.,
м
27 ноября, сб
сб2723:00−14ююв3597100 0.8 1011163
02:00−11з101590100 2.3 1018974
05:00−14з71491100 0.1 1024508
08:00−16зюз51095100 0.3 1029330
11:00−15зюз71293100 0.2 1030892
14:00−16зюз71193100 0.4 1033914
17:00−21зюз359899 0.1 1037130
20:00−21юз359866 0.1 1039135
28 ноября, вс
вс2823:00−26з1110097 0.0 10429
02:00−26зсз11100100 0.0 10429
05:00−26ссз11100100 0.0 10419
08:00−26в11100100 0.1 10419
11:00−22ююв1210097 0.1 103876
14:00−20ю2399100 0.1 1035203
17:00−25юв1110096 0.0 10359
20:00−24вюв11100100 0.1 103313
29 ноября, пн
пн2923:00−21ююв2299100 0.3 103077
02:00−21ююв2299100 0.6 102985
05:00−21ююв22100100 0.3 102864
08:00−20ю22100100 0.4 102766
11:00−19ю2297100 0.2 1027134
14:00−17ю2396100 0.4 1026199
17:00−19ююв11100100 0.2 102616
20:00−18ююв1199100 0.4 102523
30 ноября, вт
вт3023:00−17ю2398100 0.3 102353
02:00−17ю2299100 0.6 102337
05:00−18ююз12100100 0.3 102322
08:00−16юз2398100 0.8 102280
11:00−15з3892100 0.4 1023500
14:00−16юз4693100 0.6 1023320
17:00−24юз01100100 0.0 10259
20:00−18ююв2298100 0.2 102176
1 декабря, ср
ср123:00−17ююв2398100 0.6 1017108
02:00−16ююв2397100 1.8 1015147
05:00−15ююв2497100 1.1 1011166
08:00−16юв2297100 1.8 100999
11:00−15ююв2396100 0.4 1007125
14:00−13ю1295100 0.8 1006136
17:00−14зюз1197100 0.3 100812
20:00−12зсз5992100 0.6 1010342